^^
Garrymore Weather Station Historical Data
Daily Summary for February 18, 2020 Units:  English    Metric   Both
Daily Weekly Monthly Yearly Custom
  High: Low: Average:
Temperature: 41 °F 35.6 °F 37.9 °F
Dew Point: 35.6 °F 28.4 °F 32.4 °F
Humidity: 87% 75% 80%
Wind Speed: 16.2mph 1.9mph 8mph
Wind Gust: 24.9mph - -
Wind- - SSW
Pressure: 30.1 in 30 in -
Precipitation: 0.18 in    
Historical Graphs
 
 
Tabular Data for February 18, 2020
Time Temperature Dew Point Pressure Wind Wind Speed Wind Gust Humidity Rainfall Rate (Hourly) solar
00:00 37.4 °F 32 °F 30 in W 8.7 mph 14.9 mph 79% 0 in 0 W/m2
00:05 37.4 °F 32 °F 30 in SW 6.8 mph 14.9 mph 79% 0 in 0 W/m2
00:10 37.4 °F 32 °F 30 in SW 8.7 mph 14.9 mph 78% 0 in 0 W/m2
00:15 37.4 °F 32 °F 30.1 in WSW 8.1 mph 14.3 mph 78% 0 in 0 W/m2
00:20 37.4 °F 32 °F 30.1 in SW 8.1 mph 16.8 mph 78% 0 in 0 W/m2
00:25 37.4 °F 32 °F 30.1 in SW 8.1 mph 16.2 mph 77% 0 in 0 W/m2
00:30 37.4 °F 32 °F 30.1 in SW 6.2 mph 14.9 mph 77% 0 in 0 W/m2
00:35 37.4 °F 32 °F 30.1 in SW 6.8 mph 14.3 mph 77% 0 in 0 W/m2
00:40 37.4 °F 30.2 °F 30.1 in SW 8.1 mph 14.3 mph 77% 0 in 0 W/m2
00:45 37.4 °F 30.2 °F 30.1 in SSW 8.1 mph 14.3 mph 77% 0 in 0 W/m2
00:50 37.4 °F 30.2 °F 30 in SSW 6.2 mph 11.8 mph 77% 0 in 0 W/m2
00:55 37.4 °F 30.2 °F 30.1 in S 6.8 mph 13 mph 78% 0 in 0 W/m2
01:00 37.4 °F 30.2 °F 30.1 in S 6.8 mph 11.2 mph 78% 0 in 0 W/m2
01:05 37.4 °F 30.2 °F 30.1 in S 8.1 mph 9.9 mph 78% 0 in 0 W/m2
01:10 35.6 °F 30.2 °F 30.1 in S 6.2 mph 9.9 mph 80% 0 in 0 W/m2
01:15 35.6 °F 30.2 °F 30.1 in S 5 mph 8.1 mph 81% 0 in 0 W/m2
01:20 35.6 °F 30.2 °F 30.1 in S 6.2 mph 11.2 mph 81% 0 in 0 W/m2
01:25 35.6 °F 30.2 °F 30.1 in S 8.1 mph 9.9 mph 82% 0 in 0 W/m2
01:30 35.6 °F 28.4 °F 30 in S 6.2 mph 11.8 mph 78% 0 in 0 W/m2
01:35 35.6 °F 30.2 °F 30 in S 6.8 mph 11.8 mph 79% 0 in 0 W/m2
01:40 35.6 °F 30.2 °F 30 in SSW 8.1 mph 11.8 mph 79% 0 in 0 W/m2
01:45 35.6 °F 30.2 °F 30 in SSW 6.8 mph 11.2 mph 79% 0 in 0 W/m2
01:50 35.6 °F 30.2 °F 30 in S 6.8 mph 11.2 mph 80% 0 in 0 W/m2
01:55 35.6 °F 30.2 °F 30 in S 8.7 mph 11.8 mph 80% 0 in 0 W/m2
02:00 35.6 °F 30.2 °F 30 in S 8.1 mph 14.9 mph 80% 0 in 0 W/m2
02:05 35.6 °F 30.2 °F 30 in S 6.8 mph 13 mph 81% 0 in 0 W/m2
02:10 35.6 °F 30.2 °F 30 in S 6.8 mph 13 mph 81% 0 in 0 W/m2
02:15 35.6 °F 30.2 °F 30 in S 6.2 mph 13 mph 81% 0 in 0 W/m2
02:20 35.6 °F 30.2 °F 30 in S 6.2 mph 11.2 mph 81% 0 in 0 W/m2
02:25 35.6 °F 30.2 °F 30 in SSW 6.8 mph 13 mph 82% 0 in 0 W/m2
02:30 35.6 °F 32 °F 30 in SSW 6.8 mph 13 mph 86% 0 in 0 W/m2
02:35 35.6 °F 32 °F 30 in S 6.8 mph 11.2 mph 86% 0 in 0 W/m2
02:40 35.6 °F 32 °F 30 in S 6.2 mph 19.9 mph 86% 0 in 0 W/m2
02:45 37.4 °F 33.8 °F 30 in SSW 9.9 mph 19.9 mph 87% 0 in 0 W/m2
02:50 37.4 °F 33.8 °F 30 in SW 8.7 mph 16.8 mph 87% 0 in 0 W/m2
02:55 39.2 °F 35.6 °F 30 in SW 8.7 mph 23 mph 86% 0 in 0 W/m2
03:00 39.2 °F 33.8 °F 30 in SW 14.9 mph 21.7 mph 83% 0 in 0 W/m2
03:05 39.2 °F 33.8 °F 30 in SW 13 mph 21.7 mph 83% 0 in 0 W/m2
03:10 39.2 °F 33.8 °F 30 in SW 8.7 mph 16.8 mph 80% 0 in 0 W/m2
03:15 39.2 °F 33.8 °F 30 in SW 8.1 mph 14.9 mph 78% 0 in 0 W/m2
03:20 39.2 °F 33.8 °F 30 in SW 6.2 mph 14.9 mph 77% 0 in 0 W/m2
03:25 39.2 °F 33.8 °F 30 in SSW 6.2 mph 11.8 mph 77% 0 in 0 W/m2
03:30 39.2 °F 32 °F 30 in SW 6.2 mph 14.9 mph 77% 0 in 0 W/m2
03:35 39.2 °F 33.8 °F 30 in SSW 6.2 mph 11.8 mph 79% 0 in 0 W/m2
03:40 39.2 °F 33.8 °F 30 in S 8.7 mph 13 mph 81% 0 in 0 W/m2
03:45 37.4 °F 32 °F 30 in S 6.2 mph 11.8 mph 81% 0 in 0 W/m2
03:50 37.4 °F 32 °F 30 in S 8.1 mph 11.8 mph 81% 0 in 0 W/m2
03:55 37.4 °F 32 °F 30 in S 6.8 mph 14.9 mph 83% 0 in 0 W/m2
04:00 37.4 °F 32 °F 30 in SSW 6.2 mph 16.2 mph 83% 0 in 0 W/m2
04:05 37.4 °F 32 °F 30 in SSW 8.1 mph 16.2 mph 84% 0 in 0 W/m2
04:10 37.4 °F 32 °F 30 in SSW 8.7 mph 14.9 mph 84% 0 in 0 W/m2
04:15 37.4 °F 33.8 °F 30 in SSW 8.7 mph 14.9 mph 84% 0 in 0 W/m2
04:20 39.2 °F 33.8 °F 30 in SSW 9.9 mph 21.1 mph 85% 0 in 0 W/m2
04:25 39.2 °F 35.6 °F 30 in SSW 14.3 mph 21.1 mph 84% 0 in 0 W/m2
04:30 39.2 °F 35.6 °F 30 in SW 8.7 mph 19.9 mph 83% 0 in 0 W/m2
04:35 41 °F 35.6 °F 30 in WSW 11.8 mph 19.9 mph 81% 0 in 0 W/m2
04:40 41 °F 35.6 °F 30 in SW 9.9 mph 21.1 mph 80% 0 in 0 W/m2
04:45 41 °F 35.6 °F 30 in SW 9.9 mph 19.9 mph 79% 0 in 0 W/m2
04:50 41 °F 33.8 °F 30 in SW 11.8 mph 19.9 mph 77% 0 in 0 W/m2
04:55 41 °F 33.8 °F 30 in SW 11.8 mph 21.1 mph 76% 0 in 0 W/m2
05:00 41 °F 33.8 °F 30 in SSW 11.8 mph 24.9 mph 76% 0 in 0 W/m2
05:05 41 °F 33.8 °F 30 in SSW 13 mph 16.2 mph 76% 0 in 0 W/m2
05:10 41 °F 33.8 °F 30 in SW 13 mph 19.9 mph 75% 0 in 0 W/m2
05:15 41 °F 33.8 °F 30 in SW 9.9 mph 21.1 mph 75% 0 in 0 W/m2
05:20 41 °F 33.8 °F 30 in SSW 16.2 mph 23 mph 75% 0 in 0 W/m2
05:25 41 °F 33.8 °F 30 in SSW 11.8 mph 23 mph 75% 0 in 0 W/m2
05:30 41 °F 33.8 °F 30 in SW 11.8 mph 19.9 mph 75% 0.01 in 0 W/m2
05:35 41 °F 33.8 °F 30 in W 8.7 mph 19.9 mph 76% 0 in 0 W/m2
05:40 41 °F 33.8 °F 30 in SW 11.8 mph 21.1 mph 79% 0.04 in 0 W/m2
05:45 39.2 °F 32 °F 30 in W 8.1 mph 21.1 mph 77% 0.12 in 0 W/m2
05:50 39.2 °F 32 °F 30 in NW 3.1 mph 16.2 mph 78% 0 in 0 W/m2
05:55 37.4 °F 32 °F 30 in W 6.2 mph 14.3 mph 78% 0 in 0 W/m2
06:00 37.4 °F 32 °F 30 in W 6.8 mph 14.3 mph 80% 0 in 0 W/m2
06:05 37.4 °F 32 °F 30 in WSW 8.1 mph 14.3 mph 81% 0 in 0 W/m2
06:10 37.4 °F 33.8 °F 30 in SSW 6.8 mph 14.3 mph 82% 0 in 0 W/m2
06:15 37.4 °F 33.8 °F 30 in SW 6.2 mph 11.2 mph 83% 0 in 0 W/m2
06:20 37.4 °F 33.8 °F 30 in SSW 5 mph 8.7 mph 83% 0 in 0 W/m2
06:25 37.4 °F 32 °F 30 in S 3.1 mph 6.8 mph 83% 0 in 0 W/m2
06:30 37.4 °F 32 °F 30 in S 5 mph 8.1 mph 84% 0 in 0 W/m2
06:35 37.4 °F 32 °F 30 in S 3.1 mph 8.1 mph 84% 0 in 0 W/m2
06:40 37.4 °F 33.8 °F 30 in S 5 mph 8.1 mph 84% 0 in 0 W/m2
06:45 37.4 °F 33.8 °F 30 in SSW 1.9 mph 8.1 mph 84% 0.01 in 0 W/m2
06:50 37.4 °F 33.8 °F 30 in NW 8.1 mph 14.9 mph 85% 0 in 0 W/m2
Garrymore Weather Station, Geashill, Tullamore, Offaly, Ireland
Compliments of Weather Underground - 2 mb